Time,TemperatureF,DewpointF,PressureIn,WindDirection,WindDirectionDegrees,WindSpeedMPH,WindSpeedGustMPH,Humidity,HourlyPrecipIn,Conditions,Clouds,dailyrainin,SoftwareType,DateUTC
2013-05-26 08:09:00,41.9,39.7,29.92,WNW,300,4.0,23.0,92,0.00,,,0.20,Wunderground v.1.15,2013-05-26 12:09:00,
2013-05-26 08:20:00,42.2,40.0,29.92,WSW,249,4.0,4.0,92,0.00,,,0.20,Wunderground v.1.15,2013-05-26 12:20:00,
2013-05-26 08:30:00,42.5,40.6,29.92,WNW,291,3.0,23.0,93,0.00,,,0.20,Wunderground v.1.15,2013-05-26 12:30:00,
2013-05-26 08:40:00,42.3,40.4,29.93,West,277,5.0,5.0,93,0.00,,,0.20,Wunderground v.1.15,2013-05-26 12:40:00,
2013-05-26 08:50:00,42.1,40.2,29.94,WNW,288,5.0,23.0,93,0.00,,,0.20,Wunderground v.1.15,2013-05-26 12:50:00,
2013-05-26 09:10:00,42.5,41.2,29.94,WNW,299,4.0,4.0,95,0.00,,,0.21,Wunderground v.1.15,2013-05-26 13:10:00,
2013-05-26 09:20:00,42.9,41.6,29.94,West,274,2.0,23.0,95,0.00,,,0.21,Wunderground v.1.15,2013-05-26 13:20:00,
2013-05-26 09:30:00,43.2,41.9,29.94,West,264,3.0,3.0,95,0.00,,,0.21,Wunderground v.1.15,2013-05-26 13:30:00,
2013-05-26 09:40:00,43.8,42.5,29.95,West,278,3.0,23.0,95,0.00,,,0.21,Wunderground v.1.15,2013-05-26 13:40:00,
2013-05-26 09:49:00,43.9,41.7,29.95,West,272,5.0,5.0,92,0.00,,,0.21,Wunderground v.1.15,2013-05-26 13:49:00,
2013-05-26 10:00:00,44.1,41.6,29.95,NW,318,5.0,5.0,91,0.00,,,0.21,Wunderground v.1.15,2013-05-26 14:00:00,
2013-05-26 10:10:00,43.8,41.3,29.94,West,277,2.0,23.0,91,0.00,,,0.21,Wunderground v.1.15,2013-05-26 14:10:00,
2013-05-26 10:20:00,43.5,41.6,29.95,WNW,303,4.0,4.0,93,0.00,,,0.22,Wunderground v.1.15,2013-05-26 14:20:00,
2013-05-26 10:30:00,43.2,41.3,29.95,SW,235,5.0,5.0,93,0.06,,,0.23,Wunderground v.1.15,2013-05-26 14:30:00,
2013-05-26 10:40:00,43.2,41.3,29.95,West,279,5.0,23.0,93,0.08,,,0.24,Wunderground v.1.15,2013-05-26 14:40:00,
2013-05-26 10:50:00,44.6,43.3,29.96,WNW,289,4.0,4.0,95,0.00,,,0.24,Wunderground v.1.15,2013-05-26 14:50:00,
2013-05-26 11:00:00,46.2,44.0,29.96,NW,304,4.0,23.0,92,0.00,,,0.24,Wunderground v.1.15,2013-05-26 15:00:00,
2013-05-26 11:10:00,44.8,42.0,29.96,WNW,286,5.0,5.0,90,0.00,,,0.24,Wunderground v.1.15,2013-05-26 15:10:00,
2013-05-26 11:20:00,44.8,42.9,29.96,WSW,251,3.0,3.0,93,0.00,,,0.24,Wunderground v.1.15,2013-05-26 15:20:00,
2013-05-26 11:30:00,45.7,44.1,29.96,NW,318,3.0,23.0,94,0.00,,,0.24,Wunderground v.1.15,2013-05-26 15:30:00,
2013-05-26 11:40:00,46.4,42.7,29.96,WSW,254,5.0,23.0,87,0.00,,,0.24,Wunderground v.1.15,2013-05-26 15:40:00,
2013-05-26 11:50:00,46.2,41.9,29.96,WNW,303,5.0,23.0,85,0.00,,,0.24,Wunderground v.1.15,2013-05-26 15:50:00,
2013-05-26 12:00:00,45.8,42.2,29.97,West,260,6.0,6.0,87,0.00,,,0.25,Wunderground v.1.15,2013-05-26 16:00:00,
2013-05-26 12:10:00,46.8,43.1,29.97,West,262,5.0,5.0,87,0.06,,,0.26,Wunderground v.1.15,2013-05-26 16:10:00,
2013-05-26 12:20:00,48.2,43.9,29.97,South,179,3.0,3.0,85,0.04,,,0.26,Wunderground v.1.15,2013-05-26 16:20:00,
2013-05-26 12:30:00,48.2,42.0,29.97,WNW,284,5.0,5.0,79,0.00,,,0.26,Wunderground v.1.15,2013-05-26 16:30:00,
2013-05-26 12:40:00,48.0,41.5,29.97,NW,305,4.0,4.0,78,0.00,,,0.26,Wunderground v.1.15,2013-05-26 16:40:00,
2013-05-26 12:50:00,47.3,41.1,29.97,West,276,4.0,4.0,79,0.00,,,0.26,Wunderground v.1.15,2013-05-26 16:50:00,
2013-05-26 13:00:00,47.7,42.5,29.97,WNW,301,3.0,5.0,82,0.00,,,0.26,Wunderground v.1.15,2013-05-26 17:00:00,
2013-05-26 13:10:00,47.1,41.6,29.97,WNW,287,5.0,15.0,81,0.00,,,0.26,Wunderground v.1.15,2013-05-26 17:10:00,
2013-05-26 13:20:00,46.7,43.3,29.98,NW,317,3.0,15.0,88,0.00,,,0.26,Wunderground v.1.15,2013-05-26 17:20:00,
2013-05-26 13:30:00,45.2,41.9,29.99,NW,308,8.0,8.0,88,0.00,,,0.27,Wunderground v.1.15,2013-05-26 17:30:00,
2013-05-26 13:40:00,44.9,42.1,29.99,WSW,253,7.0,15.0,90,0.00,,,0.27,Wunderground v.1.15,2013-05-26 17:40:00,
2013-05-26 13:50:00,45.4,42.9,30.00,NW,308,6.0,6.0,91,0.00,,,0.28,Wunderground v.1.15,2013-05-26 17:50:00,
2013-05-26 14:00:00,45.7,42.9,30.00,NW,305,4.0,15.0,90,0.00,,,0.28,Wunderground v.1.15,2013-05-26 18:00:00,
2013-05-26 14:09:00,46.2,43.4,30.00,WNW,297,6.0,6.0,90,0.00,,,0.28,Wunderground v.1.15,2013-05-26 18:09:00,
2013-05-26 14:20:00,46.2,42.5,30.01,NNW,328,5.0,15.0,87,0.00,,,0.28,Wunderground v.1.15,2013-05-26 18:20:00,
2013-05-26 14:30:00,46.7,43.3,30.01,WSW,254,3.0,15.0,88,0.00,,,0.28,Wunderground v.1.15,2013-05-26 18:30:00,
2013-05-26 14:40:00,46.7,43.0,30.01,NW,326,5.0,5.0,87,0.00,,,0.28,Wunderground v.1.15,2013-05-26 18:40:00,
2013-05-26 14:50:00,47.1,43.1,30.02,WNW,292,3.0,15.0,86,0.00,,,0.28,Wunderground v.1.15,2013-05-26 18:50:00,
2013-05-26 15:00:00,48.2,43.6,30.02,West,277,3.0,3.0,84,0.00,,,0.28,Wunderground v.1.15,2013-05-26 19:00:00,
2013-05-26 15:10:00,48.0,42.8,30.02,WNW,283,5.0,5.0,82,0.00,,,0.28,Wunderground v.1.15,2013-05-26 19:10:00,
2013-05-26 15:20:00,47.9,42.7,30.02,West,266,4.0,15.0,82,0.00,,,0.28,Wunderground v.1.15,2013-05-26 19:20:00,
2013-05-26 15:30:00,47.6,43.9,30.02,NW,314,4.0,4.0,87,0.00,,,0.28,Wunderground v.1.15,2013-05-26 19:30:00,
2013-05-26 15:40:00,47.9,43.3,30.03,West,276,3.0,15.0,84,0.00,,,0.28,Wunderground v.1.15,2013-05-26 19:40:00,
2013-05-26 15:50:00,47.7,42.5,30.04,NW,310,4.0,4.0,82,0.00,,,0.28,Wunderground v.1.15,2013-05-26 19:50:00,
2013-05-26 16:00:00,47.1,42.2,30.04,West,278,4.0,4.0,83,0.00,,,0.28,Wunderground v.1.15,2013-05-26 20:00:00,
2013-05-26 16:10:00,46.8,43.1,30.05,West,272,2.0,15.0,87,0.00,,,0.29,Wunderground v.1.15,2013-05-26 20:10:00,
2013-05-26 16:20:00,47.0,43.6,30.05,NW,313,3.0,3.0,88,0.00,,,0.29,Wunderground v.1.15,2013-05-26 20:20:00,
2013-05-26 16:30:00,46.8,43.1,30.05,NW,304,2.0,2.0,87,0.00,,,0.29,Wunderground v.1.15,2013-05-26 20:30:00,
2013-05-26 16:40:00,47.0,44.5,30.07,NW,304,0.0,15.0,91,0.00,,,0.29,Wunderground v.1.15,2013-05-26 20:40:00,
2013-05-26 16:50:00,46.7,44.2,30.07,West,266,1.0,15.0,91,0.00,,,0.29,Wunderground v.1.15,2013-05-26 20:50:00,
2013-05-26 17:00:00,46.5,44.0,30.07,West,262,2.0,15.0,91,0.00,,,0.30,Wunderground v.1.15,2013-05-26 21:00:00,
2013-05-26 17:10:00,46.1,43.3,30.08,NW,304,3.0,15.0,90,0.00,,,0.30,Wunderground v.1.15,2013-05-26 21:10:00,
2013-05-26 17:20:00,45.4,42.3,30.08,West,274,6.0,6.0,89,0.00,,,0.30,Wunderground v.1.15,2013-05-26 21:20:00,
2013-05-26 17:30:00,45.2,42.2,30.08,NW,316,5.0,5.0,89,0.00,,,0.30,Wunderground v.1.15,2013-05-26 21:30:00,
2013-05-26 17:40:00,45.4,42.6,30.09,NW,320,4.0,4.0,90,0.00,,,0.30,Wunderground v.1.15,2013-05-26 21:40:00,
2013-05-26 17:50:00,45.1,42.1,30.09,WNW,291,5.0,15.0,89,0.00,,,0.30,Wunderground v.1.15,2013-05-26 21:50:00,
2013-05-26 18:00:00,44.9,42.7,30.09,NW,310,3.0,3.0,92,0.00,,,0.31,Wunderground v.1.15,2013-05-26 22:00:00,
2013-05-26 18:10:00,44.9,42.7,30.10,NW,318,1.0,1.0,92,0.00,,,0.31,Wunderground v.1.15,2013-05-26 22:10:00,
2013-05-26 18:20:00,45.2,43.6,30.10,NW,318,0.0,0.0,94,0.00,,,0.31,Wunderground v.1.15,2013-05-26 22:20:00,
2013-05-26 18:30:00,45.1,43.5,30.10,NW,318,0.0,0.0,94,0.00,,,0.31,Wunderground v.1.15,2013-05-26 22:30:00,
2013-05-26 18:40:00,44.8,42.9,30.11,NW,324,1.0,1.0,93,0.00,,,0.31,Wunderground v.1.15,2013-05-26 22:40:00,
2013-05-26 18:50:00,44.9,43.3,30.12,NW,324,0.0,0.0,94,0.00,,,0.31,Wunderground v.1.15,2013-05-26 22:50:00,
2013-05-26 19:00:00,45.1,43.5,30.12,NW,324,0.0,0.0,94,0.00,,,0.31,Wunderground v.1.15,2013-05-26 23:00:00,
2013-05-26 19:10:00,45.4,44.1,30.11,NW,324,0.0,11.0,95,0.00,,,0.31,Wunderground v.1.15,2013-05-26 23:10:00,
2013-05-26 19:19:00,45.5,44.2,30.11,NW,324,0.0,11.0,95,0.00,,,0.31,Wunderground v.1.15,2013-05-26 23:19:00,
2013-05-26 19:30:00,45.2,43.6,30.11,NW,324,0.0,11.0,94,0.00,,,0.31,Wunderground v.1.15,2013-05-26 23:30:00,
2013-05-26 19:40:00,44.2,42.6,30.10,NNW,328,1.0,11.0,94,0.00,,,0.31,Wunderground v.1.15,2013-05-26 23:40:00,
2013-05-26 19:50:00,43.9,42.6,30.10,NNW,346,1.0,1.0,95,0.00,,,0.31,Wunderground v.1.15,2013-05-26 23:50:00,
2013-05-26 20:00:00,43.6,42.3,30.10,NNW,346,0.0,11.0,95,0.00,,,0.31,Wunderground v.1.15,2013-05-27 00:00:00,
2013-05-26 20:10:00,43.3,42.2,30.11,NNW,346,0.0,11.0,96,0.00,,,0.31,Wunderground v.1.15,2013-05-27 00:10:00,
2013-05-26 20:20:00,42.9,41.8,30.10,NNW,346,0.0,11.0,96,0.00,,,0.31,Wunderground v.1.15,2013-05-27 00:20:00,
2013-05-26 20:30:00,42.5,41.4,30.10,NNW,346,0.0,11.0,96,0.00,,,0.31,Wunderground v.1.15,2013-05-27 00:30:00,
2013-05-26 20:40:00,41.8,40.7,30.10,NNW,346,0.0,11.0,96,0.00,,,0.31,Wunderground v.1.15,2013-05-27 00:40:00,
2013-05-26 20:50:00,41.5,40.7,30.10,NNW,346,0.0,11.0,97,0.00,,,0.31,Wunderground v.1.15,2013-05-27 00:50:00,
2013-05-26 21:00:00,41.3,40.5,30.10,NNW,346,0.0,11.0,97,0.00,,,0.31,Wunderground v.1.15,2013-05-27 01:00:00,
2013-05-26 21:10:00,40.8,40.0,30.10,NNW,346,0.0,11.0,97,0.00,,,0.31,Wunderground v.1.15,2013-05-27 01:10:00,
2013-05-26 21:20:00,40.2,39.4,30.11,NNW,346,0.0,11.0,97,0.00,,,0.31,Wunderground v.1.15,2013-05-27 01:20:00,
2013-05-26 21:30:00,40.2,39.7,30.11,NNW,346,0.0,11.0,98,0.00,,,0.31,Wunderground v.1.15,2013-05-27 01:30:00,
2013-05-26 21:40:00,39.9,39.4,30.11,NNW,346,0.0,11.0,98,0.00,,,0.31,Wunderground v.1.15,2013-05-27 01:40:00,
2013-05-26 21:50:00,40.1,39.6,30.11,NNW,346,0.0,11.0,98,0.00,,,0.31,Wunderground v.1.15,2013-05-27 01:50:00,
2013-05-26 21:59:00,39.6,39.1,30.11,NNW,346,0.0,11.0,98,0.00,,,0.31,Wunderground v.1.15,2013-05-27 01:59:00,
2013-05-26 22:10:00,39.1,38.6,30.11,NNW,346,0.0,11.0,98,0.00,,,0.31,Wunderground v.1.15,2013-05-27 02:10:00,
2013-05-26 22:20:00,39.1,38.6,30.12,NNW,346,0.0,11.0,98,0.00,,,0.31,Wunderground v.1.15,2013-05-27 02:20:00,
2013-05-26 22:30:00,38.8,38.5,30.12,NNW,346,0.0,11.0,99,0.00,,,0.31,Wunderground v.1.15,2013-05-27 02:30:00,
2013-05-26 22:40:00,38.3,38.0,30.13,NNW,346,0.0,11.0,99,0.00,,,0.31,Wunderground v.1.15,2013-05-27 02:40:00,
2013-05-26 22:50:00,38.5,38.2,30.12,NNW,346,0.0,11.0,99,0.00,,,0.31,Wunderground v.1.15,2013-05-27 02:50:00,
2013-05-26 23:00:00,38.0,37.7,30.12,NNW,346,0.0,11.0,99,0.00,,,0.31,Wunderground v.1.15,2013-05-27 03:00:00,
2013-05-26 23:10:00,38.0,37.7,30.13,NNW,346,0.0,11.0,99,0.00,,,0.31,Wunderground v.1.15,2013-05-27 03:10:00,
2013-05-26 23:20:00,38.0,37.7,30.13,NNW,346,0.0,11.0,99,0.00,,,0.31,Wunderground v.1.15,2013-05-27 03:20:00,
2013-05-26 23:30:00,37.5,37.2,30.13,NNW,346,0.0,11.0,99,0.00,,,0.31,Wunderground v.1.15,2013-05-27 03:30:00,
2013-05-26 23:40:00,38.0,37.7,30.13,NNW,346,0.0,11.0,99,0.00,,,0.31,Wunderground v.1.15,2013-05-27 03:40:00,
2013-05-26 23:50:00,38.0,37.7,30.13,NNW,346,0.0,11.0,99,0.00,,,0.31,Wunderground v.1.15,2013-05-27 03:50:00,